Year,Month,Day,Hour,Minute,Value (Times are PST for temperature in C)
2015,04,09,00,00,7.30
2015,04,09,00,01,7.30
2015,04,09,00,02,7.40
2015,04,09,00,03,7.40
2015,04,09,00,04,7.40
2015,04,09,00,05,7.40
2015,04,09,00,06,7.40
2015,04,09,00,07,7.50
2015,04,09,00,08,7.50
2015,04,09,00,09,7.40
2015,04,09,00,10,7.40
2015,04,09,00,11,7.40
2015,04,09,00,12,7.40
2015,04,09,00,13,7.40
2015,04,09,00,14,7.40
2015,04,09,00,15,7.30
2015,04,09,00,16,7.30
2015,04,09,00,17,7.30
2015,04,09,00,18,7.30
2015,04,09,00,19,7.30
2015,04,09,00,20,7.30
2015,04,09,00,21,7.20
2015,04,09,00,22,7.20
2015,04,09,00,23,7.20
2015,04,09,00,24,7.20
2015,04,09,00,25,7.20
2015,04,09,00,26,7.10
2015,04,09,00,27,7.10
2015,04,09,00,28,7.10
2015,04,09,00,29,7.10
2015,04,09,00,30,7.10
2015,04,09,00,31,7.10
2015,04,09,00,32,7.10
2015,04,09,00,33,7.10
2015,04,09,00,34,7.10
2015,04,09,00,35,7.10
2015,04,09,00,36,7.10
2015,04,09,00,37,7.00
2015,04,09,00,38,7.00
2015,04,09,00,39,7.00
2015,04,09,00,40,6.90
2015,04,09,00,41,6.90
2015,04,09,00,42,6.90
2015,04,09,00,43,6.90
2015,04,09,00,44,6.90
2015,04,09,00,45,6.80
2015,04,09,00,46,6.80
2015,04,09,00,47,6.70
2015,04,09,00,48,6.70
2015,04,09,00,49,6.70
2015,04,09,00,50,6.60
2015,04,09,00,51,6.60
2015,04,09,00,52,6.60
2015,04,09,00,53,6.60
2015,04,09,00,54,6.50
2015,04,09,00,55,6.50
2015,04,09,00,56,6.50
2015,04,09,00,57,6.50
2015,04,09,00,58,6.50
2015,04,09,00,59,6.40
2015,04,09,01,00,6.40
2015,04,09,01,01,6.40
2015,04,09,01,02,6.40
2015,04,09,01,03,6.40
2015,04,09,01,04,6.40
2015,04,09,01,05,6.40
2015,04,09,01,06,6.40
2015,04,09,01,07,6.40
2015,04,09,01,08,6.30
2015,04,09,01,09,6.30
2015,04,09,01,10,6.30
2015,04,09,01,11,6.30
2015,04,09,01,12,6.30
2015,04,09,01,13,6.30
2015,04,09,01,14,6.20
2015,04,09,01,15,6.20
2015,04,09,01,16,6.20
2015,04,09,01,17,6.20
2015,04,09,01,18,6.20
2015,04,09,01,19,6.20
2015,04,09,01,20,6.10
2015,04,09,01,21,6.10
2015,04,09,01,22,6.10
2015,04,09,01,23,6.10
2015,04,09,01,24,6.10
2015,04,09,01,25,6.00
2015,04,09,01,26,6.00
2015,04,09,01,27,5.90
2015,04,09,01,28,5.90
2015,04,09,01,29,5.90
2015,04,09,01,30,5.90
2015,04,09,01,31,5.80
2015,04,09,01,32,5.80
2015,04,09,01,33,5.80
2015,04,09,01,34,5.70
2015,04,09,01,35,5.70
2015,04,09,01,36,5.70
2015,04,09,01,37,5.70
2015,04,09,01,38,5.60
2015,04,09,01,39,5.60
2015,04,09,01,40,5.60
2015,04,09,01,41,5.60
2015,04,09,01,42,5.60
2015,04,09,01,43,5.60
2015,04,09,01,44,5.50
2015,04,09,01,45,5.50
2015,04,09,01,46,5.50
2015,04,09,01,47,5.40
2015,04,09,01,48,5.40
2015,04,09,01,49,5.30
2015,04,09,01,50,5.30
2015,04,09,01,51,5.30
2015,04,09,01,52,5.30
2015,04,09,01,53,5.30
2015,04,09,01,54,5.30
2015,04,09,01,55,5.20
2015,04,09,01,56,5.20
2015,04,09,01,57,5.20
2015,04,09,01,58,5.20
2015,04,09,01,59,5.20
2015,04,09,02,00,5.20
2015,04,09,02,01,5.10
2015,04,09,02,02,5.10
2015,04,09,02,03,5.10
2015,04,09,02,04,5.10
2015,04,09,02,05,5.10
2015,04,09,02,06,5.10
2015,04,09,02,07,5.10
2015,04,09,02,08,5.00
2015,04,09,02,09,5.00
2015,04,09,02,10,5.00
2015,04,09,02,11,5.00
2015,04,09,02,12,5.00
2015,04,09,02,13,5.00
2015,04,09,02,14,5.00
2015,04,09,02,15,5.00
2015,04,09,02,16,5.00
2015,04,09,02,17,5.00
2015,04,09,02,18,5.00
2015,04,09,02,19,5.00
2015,04,09,02,20,5.00
2015,04,09,02,21,5.00
2015,04,09,02,22,5.10
2015,04,09,02,23,5.10
2015,04,09,02,24,5.10
2015,04,09,02,25,5.10
2015,04,09,02,26,5.10
2015,04,09,02,27,5.10
2015,04,09,02,28,5.10
2015,04,09,02,29,5.10
2015,04,09,02,30,5.00
2015,04,09,02,31,5.00
2015,04,09,02,32,4.90
2015,04,09,02,33,4.90
2015,04,09,02,34,4.90
2015,04,09,02,35,4.90
2015,04,09,02,36,4.90
2015,04,09,02,37,4.90
2015,04,09,02,38,4.90
2015,04,09,02,39,4.90
2015,04,09,02,40,4.90
2015,04,09,02,41,4.90
2015,04,09,02,42,5.00
2015,04,09,02,43,4.90
2015,04,09,02,44,4.90
2015,04,09,02,45,4.90
2015,04,09,02,46,4.90
2015,04,09,02,47,4.90
2015,04,09,02,48,4.90
2015,04,09,02,49,4.90
2015,04,09,02,50,4.90
2015,04,09,02,51,4.90
2015,04,09,02,52,4.90
2015,04,09,02,53,4.90
2015,04,09,02,54,4.90
2015,04,09,02,55,4.90
2015,04,09,02,56,4.90
2015,04,09,02,57,4.90
2015,04,09,02,58,4.90
2015,04,09,02,59,4.80
2015,04,09,03,00,4.80
2015,04,09,03,01,4.80
2015,04,09,03,02,4.80
2015,04,09,03,03,4.80
2015,04,09,03,04,4.80
2015,04,09,03,05,4.70
2015,04,09,03,06,4.70
2015,04,09,03,07,4.70
2015,04,09,03,08,4.70
2015,04,09,03,09,4.60
2015,04,09,03,10,4.60
2015,04,09,03,11,4.60
2015,04,09,03,12,4.60
2015,04,09,03,13,4.60
2015,04,09,03,14,4.60
2015,04,09,03,15,4.50
2015,04,09,03,16,4.50
2015,04,09,03,17,4.50
2015,04,09,03,18,4.50
2015,04,09,03,19,4.40
2015,04,09,03,20,4.40
2015,04,09,03,21,4.40
2015,04,09,03,22,4.40
2015,04,09,03,23,4.40
2015,04,09,03,24,4.40
2015,04,09,03,25,4.40
2015,04,09,03,26,4.40
2015,04,09,03,27,4.30
2015,04,09,03,28,4.30
2015,04,09,03,29,4.30
2015,04,09,03,30,4.30
2015,04,09,03,31,4.30
2015,04,09,03,32,4.30
2015,04,09,03,33,4.30
2015,04,09,03,34,4.30
2015,04,09,03,35,4.30
2015,04,09,03,36,4.20
2015,04,09,03,37,4.20
2015,04,09,03,38,4.20
2015,04,09,03,39,4.20
2015,04,09,03,40,4.20
2015,04,09,03,41,4.20
2015,04,09,03,42,4.20
2015,04,09,03,43,4.20
2015,04,09,03,44,4.10
2015,04,09,03,45,4.10
2015,04,09,03,46,4.10
2015,04,09,03,47,4.10
2015,04,09,03,48,4.10
2015,04,09,03,49,4.10
2015,04,09,03,50,4.10
2015,04,09,03,51,4.10
2015,04,09,03,52,4.10
2015,04,09,03,53,4.10
2015,04,09,03,54,4.10
2015,04,09,03,55,4.10
2015,04,09,03,56,4.10
2015,04,09,03,57,4.10
2015,04,09,03,58,4.10
2015,04,09,03,59,4.10
2015,04,09,04,00,4.10
2015,04,09,04,01,4.10
2015,04,09,04,02,4.00
2015,04,09,04,03,4.00
2015,04,09,04,04,4.00
2015,04,09,04,05,4.00
2015,04,09,04,06,4.00
2015,04,09,04,07,3.90
2015,04,09,04,08,3.90
2015,04,09,04,09,3.90
2015,04,09,04,10,3.90
2015,04,09,04,11,3.90
2015,04,09,04,12,3.90
2015,04,09,04,13,3.80
2015,04,09,04,14,3.80
2015,04,09,04,15,3.80
2015,04,09,04,16,3.80
2015,04,09,04,17,3.80
2015,04,09,04,18,3.80
2015,04,09,04,19,3.80
2015,04,09,04,20,3.80
2015,04,09,04,21,3.70
2015,04,09,04,22,3.70
2015,04,09,04,23,3.70
2015,04,09,04,24,3.70
2015,04,09,04,25,3.70
2015,04,09,04,26,3.70
2015,04,09,04,27,3.70
2015,04,09,04,28,3.70
2015,04,09,04,29,3.70
2015,04,09,04,30,3.70
2015,04,09,04,31,3.70
2015,04,09,04,32,3.70
2015,04,09,04,33,3.70
2015,04,09,04,34,3.70
2015,04,09,04,35,3.70
2015,04,09,04,36,3.60
2015,04,09,04,37,3.60
2015,04,09,04,38,3.60
2015,04,09,04,39,3.60
2015,04,09,04,40,3.60
2015,04,09,04,41,3.60
2015,04,09,04,42,3.60
2015,04,09,04,43,3.60
2015,04,09,04,44,3.60
2015,04,09,04,45,3.60
2015,04,09,04,46,3.60
2015,04,09,04,47,3.60
2015,04,09,04,48,3.60
2015,04,09,04,49,3.60
2015,04,09,04,50,3.50
2015,04,09,04,51,3.50
2015,04,09,04,52,3.40
2015,04,09,04,53,3.40
2015,04,09,04,54,3.40
2015,04,09,04,55,3.40
2015,04,09,04,56,3.40
2015,04,09,04,57,3.40
2015,04,09,04,58,3.40
2015,04,09,04,59,3.40
2015,04,09,05,00,3.40
2015,04,09,05,01,3.40
2015,04,09,05,02,3.40
2015,04,09,05,03,3.40
2015,04,09,05,04,3.40
2015,04,09,05,05,3.40
2015,04,09,05,06,3.40
2015,04,09,05,07,3.40
2015,04,09,05,08,3.40
2015,04,09,05,09,3.50
2015,04,09,05,10,3.50
2015,04,09,05,11,3.50
2015,04,09,05,12,3.50
2015,04,09,05,13,3.40
2015,04,09,05,14,3.40
2015,04,09,05,15,3.40
2015,04,09,05,16,3.40
2015,04,09,05,17,3.40
2015,04,09,05,18,3.40
2015,04,09,05,19,3.30
2015,04,09,05,20,3.30
2015,04,09,05,21,3.30
2015,04,09,05,22,3.30
2015,04,09,05,23,3.30
2015,04,09,05,24,3.30
2015,04,09,05,25,3.30
2015,04,09,05,26,3.30
2015,04,09,05,27,3.20
2015,04,09,05,28,3.20
2015,04,09,05,29,3.20
2015,04,09,05,30,3.20
2015,04,09,05,31,3.20
2015,04,09,05,32,3.10
2015,04,09,05,33,3.10
2015,04,09,05,34,3.10
2015,04,09,05,35,3.10
2015,04,09,05,36,3.10
2015,04,09,05,37,3.10
2015,04,09,05,38,3.00
2015,04,09,05,39,3.00
2015,04,09,05,40,3.00
2015,04,09,05,41,2.90
2015,04,09,05,42,2.90
2015,04,09,05,43,2.90
2015,04,09,05,44,2.90
2015,04,09,05,45,2.80
2015,04,09,05,46,2.80
2015,04,09,05,47,2.80
2015,04,09,05,48,2.80
2015,04,09,05,49,2.80
2015,04,09,05,50,2.70
2015,04,09,05,51,2.70
2015,04,09,05,52,2.70
2015,04,09,05,53,2.70
2015,04,09,05,54,2.60
2015,04,09,05,55,2.60
2015,04,09,05,56,2.60
2015,04,09,05,57,2.60
2015,04,09,05,58,2.60
2015,04,09,05,59,2.50
2015,04,09,06,00,2.50
2015,04,09,06,01,2.50
2015,04,09,06,02,2.50
2015,04,09,06,03,2.50
2015,04,09,06,04,2.50
2015,04,09,06,05,2.50
2015,04,09,06,06,2.50
2015,04,09,06,07,2.50
2015,04,09,06,08,2.50
2015,04,09,06,09,2.50
2015,04,09,06,10,2.50
2015,04,09,06,11,2.50
2015,04,09,06,12,2.40
2015,04,09,06,13,2.40
2015,04,09,06,14,2.40
2015,04,09,06,15,2.40
2015,04,09,06,16,2.40
2015,04,09,06,17,2.40
2015,04,09,06,18,2.40
2015,04,09,06,19,2.40
2015,04,09,06,20,2.40
2015,04,09,06,21,2.40
2015,04,09,06,22,2.30
2015,04,09,06,23,2.30
2015,04,09,06,24,2.30
2015,04,09,06,25,2.30
2015,04,09,06,26,2.30
2015,04,09,06,27,2.30
2015,04,09,06,28,2.30
2015,04,09,06,29,2.30
2015,04,09,06,30,2.30
2015,04,09,06,31,2.30
2015,04,09,06,32,2.30
2015,04,09,06,33,2.30
2015,04,09,06,34,2.30
2015,04,09,06,35,2.30
2015,04,09,06,36,2.30
2015,04,09,06,37,2.30
2015,04,09,06,38,2.20
2015,04,09,06,39,2.20
2015,04,09,06,40,2.20
2015,04,09,06,41,2.20
2015,04,09,06,42,2.20
2015,04,09,06,43,2.10
2015,04,09,06,44,2.10
2015,04,09,06,45,2.10
2015,04,09,06,46,2.10
2015,04,09,06,47,2.10
2015,04,09,06,48,2.10
2015,04,09,06,49,2.10
2015,04,09,06,50,2.10
2015,04,09,06,51,2.10
2015,04,09,06,52,2.20
2015,04,09,06,53,2.20
2015,04,09,06,54,2.20
2015,04,09,06,55,2.20
2015,04,09,06,56,2.20
2015,04,09,06,57,2.20
2015,04,09,06,58,2.20
2015,04,09,06,59,2.20
2015,04,09,07,00,2.20
2015,04,09,07,01,2.20
2015,04,09,07,02,2.20
2015,04,09,07,03,2.20
2015,04,09,07,04,2.20
2015,04,09,07,05,2.30
2015,04,09,07,06,2.30
2015,04,09,07,07,2.30
2015,04,09,07,08,2.30
2015,04,09,07,09,2.30
2015,04,09,07,10,2.30
2015,04,09,07,11,2.30
2015,04,09,07,12,2.30
2015,04,09,07,13,2.30
2015,04,09,07,14,2.30
2015,04,09,07,15,2.30
2015,04,09,07,16,2.30
2015,04,09,07,17,2.40
2015,04,09,07,18,2.40
2015,04,09,07,19,2.40
2015,04,09,07,20,2.40
2015,04,09,07,21,2.50
2015,04,09,07,22,2.50
2015,04,09,07,23,2.50
2015,04,09,07,24,2.60
2015,04,09,07,25,2.60
2015,04,09,07,26,2.70
2015,04,09,07,27,2.70
2015,04,09,07,28,2.70
2015,04,09,07,29,2.80
2015,04,09,07,30,2.80
2015,04,09,07,31,2.80
2015,04,09,07,32,2.90
2015,04,09,07,33,2.90
2015,04,09,07,34,2.90
2015,04,09,07,35,2.90
2015,04,09,07,36,2.90
2015,04,09,07,37,3.00
2015,04,09,07,38,3.00
2015,04,09,07,39,3.10
2015,04,09,07,40,3.10
2015,04,09,07,41,3.10
2015,04,09,07,42,3.20
2015,04,09,07,43,3.20
2015,04,09,07,44,3.20
2015,04,09,07,45,3.30
2015,04,09,07,46,3.30
2015,04,09,07,47,3.30
2015,04,09,07,48,3.40
2015,04,09,07,49,3.40
2015,04,09,07,50,3.50
2015,04,09,07,51,3.50
2015,04,09,07,52,3.60
2015,04,09,07,53,3.60
2015,04,09,07,54,3.70
2015,04,09,07,55,3.70
2015,04,09,07,56,3.80
2015,04,09,07,57,3.80
2015,04,09,07,58,3.90
2015,04,09,07,59,3.90
2015,04,09,08,00,4.00
2015,04,09,08,01,4.00
2015,04,09,08,02,4.10
2015,04,09,08,03,4.10
2015,04,09,08,04,4.20
2015,04,09,08,05,4.30
2015,04,09,08,06,4.30
2015,04,09,08,07,4.40
2015,04,09,08,08,4.40
2015,04,09,08,09,4.50
2015,04,09,08,10,4.50
2015,04,09,08,11,4.60
2015,04,09,08,12,4.60
2015,04,09,08,13,4.70
2015,04,09,08,14,4.80
2015,04,09,08,15,4.80
2015,04,09,08,16,4.90
2015,04,09,08,17,4.90
2015,04,09,08,18,5.00
2015,04,09,08,19,5.10
2015,04,09,08,20,5.10
2015,04,09,08,21,5.20
2015,04,09,08,22,5.20
2015,04,09,08,23,5.30
2015,04,09,08,24,5.30
2015,04,09,08,25,5.40
2015,04,09,08,26,5.50
2015,04,09,08,27,5.50
2015,04,09,08,28,5.60
2015,04,09,08,29,5.70
2015,04,09,08,30,5.70
2015,04,09,08,31,5.80
2015,04,09,08,32,5.90
2015,04,09,08,33,5.90
2015,04,09,08,34,6.00
2015,04,09,08,35,6.10
2015,04,09,08,36,6.20
2015,04,09,08,37,6.20
2015,04,09,08,38,6.30
2015,04,09,08,39,6.30
2015,04,09,08,40,6.40
2015,04,09,08,41,6.50
2015,04,09,08,42,6.60
2015,04,09,08,43,6.60
2015,04,09,08,44,6.70
2015,04,09,08,45,6.80
2015,04,09,08,46,6.80
2015,04,09,08,47,6.90
2015,04,09,08,48,6.90
2015,04,09,08,49,7.00
2015,04,09,08,50,7.10
2015,04,09,08,51,7.10
2015,04,09,08,52,7.20
2015,04,09,08,53,7.30
2015,04,09,08,54,7.30
2015,04,09,08,55,7.40
2015,04,09,08,56,7.50
2015,04,09,08,57,7.50
2015,04,09,08,58,7.60
2015,04,09,08,59,7.70
2015,04,09,09,00,7.80
2015,04,09,09,01,7.90
2015,04,09,09,02,8.00
2015,04,09,09,03,8.00
2015,04,09,09,04,8.10
2015,04,09,09,05,8.20
2015,04,09,09,06,8.30
2015,04,09,09,07,8.40
2015,04,09,09,08,8.50
2015,04,09,09,09,8.60
2015,04,09,09,10,8.60
2015,04,09,09,11,8.70
2015,04,09,09,12,8.80
2015,04,09,09,13,8.90
2015,04,09,09,14,9.00
2015,04,09,09,15,9.00
2015,04,09,09,16,9.10
2015,04,09,09,17,9.20
2015,04,09,09,18,9.20
2015,04,09,09,19,9.20
2015,04,09,09,20,9.30
2015,04,09,09,21,9.30
2015,04,09,09,22,9.30
2015,04,09,09,23,9.40
2015,04,09,09,24,9.40
2015,04,09,09,25,9.50
2015,04,09,09,26,9.50
2015,04,09,09,27,9.60
2015,04,09,09,28,9.60
2015,04,09,09,29,9.60
2015,04,09,09,30,9.70
2015,04,09,09,31,9.70
2015,04,09,09,32,9.80
2015,04,09,09,33,9.80
2015,04,09,09,34,9.90
2015,04,09,09,35,10.00
2015,04,09,09,36,10.10
2015,04,09,09,37,10.10
2015,04,09,09,38,10.20
2015,04,09,09,39,10.20
2015,04,09,09,40,10.30
2015,04,09,09,41,10.40
2015,04,09,09,42,10.40
2015,04,09,09,43,10.50
2015,04,09,09,44,10.60
2015,04,09,09,45,10.60
2015,04,09,09,46,10.70
2015,04,09,09,47,10.70
2015,04,09,09,48,10.80
2015,04,09,09,49,10.80
2015,04,09,09,50,10.80
2015,04,09,09,51,10.80
2015,04,09,09,52,10.80
2015,04,09,09,53,10.90
2015,04,09,09,54,10.90
2015,04,09,09,55,10.90
2015,04,09,09,56,11.00
2015,04,09,09,57,11.00
2015,04,09,09,58,11.00
2015,04,09,09,59,11.00
2015,04,09,10,00,11.00
2015,04,09,10,01,11.10
2015,04,09,10,02,11.10
2015,04,09,10,03,11.10
2015,04,09,10,04,11.10
2015,04,09,10,05,11.10
2015,04,09,10,06,11.20
2015,04,09,10,07,11.20
2015,04,09,10,08,11.20
2015,04,09,10,09,11.20
2015,04,09,10,10,11.30
2015,04,09,10,11,11.30
2015,04,09,10,12,11.40
2015,04,09,10,13,11.50
2015,04,09,10,14,11.50
2015,04,09,10,15,11.60
2015,04,09,10,16,11.60
2015,04,09,10,17,11.70
2015,04,09,10,18,11.70
2015,04,09,10,19,11.70
2015,04,09,10,20,11.70
2015,04,09,10,21,11.70
2015,04,09,10,22,11.70
2015,04,09,10,23,11.70
2015,04,09,10,24,11.70
2015,04,09,10,25,11.70
2015,04,09,10,26,11.70
2015,04,09,10,27,11.70
2015,04,09,10,28,11.70
2015,04,09,10,29,11.70
2015,04,09,10,30,11.70
2015,04,09,10,31,11.70
2015,04,09,10,32,11.70
2015,04,09,10,33,11.70
2015,04,09,10,34,11.70
2015,04,09,10,35,11.70
2015,04,09,10,36,11.70
2015,04,09,10,37,11.80
2015,04,09,10,38,11.80
2015,04,09,10,39,11.80
2015,04,09,10,40,11.70
2015,04,09,10,41,11.70
2015,04,09,10,42,11.70
2015,04,09,10,43,11.70
2015,04,09,10,44,11.70
2015,04,09,10,45,11.70
2015,04,09,10,46,11.70
2015,04,09,10,47,11.70
2015,04,09,10,48,11.70
2015,04,09,10,49,11.70
2015,04,09,10,50,11.60
2015,04,09,10,51,11.50
2015,04,09,10,52,11.50
2015,04,09,10,53,11.50
2015,04,09,10,54,11.40
2015,04,09,10,55,11.40
2015,04,09,10,56,11.40
2015,04,09,10,57,11.40
2015,04,09,10,58,11.40
2015,04,09,10,59,11.30
2015,04,09,11,00,11.30
2015,04,09,11,01,11.20
2015,04,09,11,02,11.20
2015,04,09,11,03,11.20
2015,04,09,11,04,11.20
2015,04,09,11,05,11.10
2015,04,09,11,06,11.10
2015,04,09,11,07,11.10
2015,04,09,11,08,11.00
2015,04,09,11,09,11.00
2015,04,09,11,10,11.00
2015,04,09,11,11,11.00
2015,04,09,11,12,11.00
2015,04,09,11,13,11.00
2015,04,09,11,14,11.00
2015,04,09,11,15,11.10
2015,04,09,11,16,11.10
2015,04,09,11,17,11.20
2015,04,09,11,18,11.20
2015,04,09,11,19,11.20
2015,04,09,11,20,11.20
2015,04,09,11,21,11.10
2015,04,09,11,22,11.00
2015,04,09,11,23,11.00
2015,04,09,11,24,11.00
2015,04,09,11,25,11.00
2015,04,09,11,26,11.00
2015,04,09,11,27,11.00
2015,04,09,11,28,11.00
2015,04,09,11,29,11.00
2015,04,09,11,30,11.00
2015,04,09,11,31,11.10
2015,04,09,11,32,11.10
2015,04,09,11,33,11.10
2015,04,09,11,34,11.00
2015,04,09,11,35,11.00
2015,04,09,11,36,11.00
2015,04,09,11,37,11.00
2015,04,09,11,38,11.10
2015,04,09,11,39,11.10
2015,04,09,11,40,11.20
2015,04,09,11,41,11.20
2015,04,09,11,42,11.20
2015,04,09,11,43,11.20
2015,04,09,11,44,11.20
2015,04,09,11,45,11.20
2015,04,09,11,46,11.30
2015,04,09,11,47,11.30
2015,04,09,11,48,11.40
2015,04,09,11,49,11.40
2015,04,09,11,50,11.50
2015,04,09,11,51,11.50
2015,04,09,11,52,11.50
2015,04,09,11,53,11.50
2015,04,09,11,54,11.50
2015,04,09,11,55,11.50
2015,04,09,11,56,11.50
2015,04,09,11,57,11.40
2015,04,09,11,58,11.40
2015,04,09,11,59,11.40
2015,04,09,12,00,11.40
2015,04,09,12,01,11.40
2015,04,09,12,02,11.50
2015,04,09,12,03,11.50
2015,04,09,12,04,11.60
2015,04,09,12,05,11.60
2015,04,09,12,06,11.60
2015,04,09,12,07,11.60
2015,04,09,12,08,11.60
2015,04,09,12,09,11.70
2015,04,09,12,10,11.70
2015,04,09,12,11,11.70
2015,04,09,12,12,11.80
2015,04,09,12,13,11.80
2015,04,09,12,14,11.80
2015,04,09,12,15,11.80
2015,04,09,12,16,11.80
2015,04,09,12,17,11.80
2015,04,09,12,18,11.80
2015,04,09,12,19,11.80
2015,04,09,12,20,11.80
2015,04,09,12,21,11.80
2015,04,09,12,22,11.80
2015,04,09,12,23,11.80
2015,04,09,12,24,11.90
2015,04,09,12,25,12.00
2015,04,09,12,26,12.10
2015,04,09,12,27,12.20
2015,04,09,12,28,12.20
2015,04,09,12,29,12.20
2015,04,09,12,30,12.20
2015,04,09,12,31,12.20
2015,04,09,12,32,12.30
2015,04,09,12,33,12.30
2015,04,09,12,34,12.30
2015,04,09,12,35,12.40
2015,04,09,12,36,12.40
2015,04,09,12,37,12.40
2015,04,09,12,38,12.40
2015,04,09,12,39,12.40
2015,04,09,12,40,12.30
2015,04,09,12,41,12.30
2015,04,09,12,42,12.40
2015,04,09,12,43,12.40
2015,04,09,12,44,12.40
2015,04,09,12,45,12.50
2015,04,09,12,46,12.50
2015,04,09,12,47,12.60
2015,04,09,12,48,12.60
2015,04,09,12,49,12.60
2015,04,09,12,50,12.60
2015,04,09,12,51,12.60
2015,04,09,12,52,12.60
2015,04,09,12,53,12.70
2015,04,09,12,54,12.70
2015,04,09,12,55,12.70
2015,04,09,12,56,12.70
2015,04,09,12,57,12.70
2015,04,09,12,58,12.70
2015,04,09,12,59,12.70
2015,04,09,13,00,12.70
2015,04,09,13,01,12.80
2015,04,09,13,02,12.80
2015,04,09,13,03,12.90
2015,04,09,13,04,13.00
2015,04,09,13,05,13.00
2015,04,09,13,06,13.00
2015,04,09,13,07,13.00
2015,04,09,13,08,12.90
2015,04,09,13,09,12.90
2015,04,09,13,10,12.90
2015,04,09,13,11,12.80
2015,04,09,13,12,12.80
2015,04,09,13,13,12.90
2015,04,09,13,14,12.90
2015,04,09,13,15,12.90
2015,04,09,13,16,12.90
2015,04,09,13,17,13.00
2015,04,09,13,18,13.00
2015,04,09,13,19,12.90
2015,04,09,13,20,13.00
2015,04,09,13,21,13.00
2015,04,09,13,22,13.00
2015,04,09,13,23,13.00
2015,04,09,13,24,13.00
2015,04,09,13,25,13.00
2015,04,09,13,26,13.00
2015,04,09,13,27,13.00
2015,04,09,13,28,13.00
2015,04,09,13,29,13.00
2015,04,09,13,30,13.00
2015,04,09,13,31,13.00
2015,04,09,13,32,13.10
2015,04,09,13,33,13.10
2015,04,09,13,34,13.10
2015,04,09,13,35,13.10
2015,04,09,13,36,13.10
2015,04,09,13,37,13.10
2015,04,09,13,38,13.20
2015,04,09,13,39,13.20
2015,04,09,13,40,13.20
2015,04,09,13,41,13.10
2015,04,09,13,42,13.10
2015,04,09,13,43,13.20
2015,04,09,13,44,13.20
2015,04,09,13,45,13.30
2015,04,09,13,46,13.30
2015,04,09,13,47,13.30
2015,04,09,13,48,13.30
2015,04,09,13,49,13.30
2015,04,09,13,50,13.30
2015,04,09,13,51,13.40
2015,04,09,13,52,13.40
2015,04,09,13,53,13.30
2015,04,09,13,54,13.30
2015,04,09,13,55,13.20
2015,04,09,13,56,13.20
2015,04,09,13,57,13.20
2015,04,09,13,58,13.20
2015,04,09,13,59,13.30
2015,04,09,14,00,13.30
2015,04,09,14,01,13.40
2015,04,09,14,02,13.50
2015,04,09,14,03,13.50
2015,04,09,14,04,13.50
2015,04,09,14,05,13.40
2015,04,09,14,06,13.40
2015,04,09,14,07,13.40
2015,04,09,14,08,13.40
2015,04,09,14,09,13.40
2015,04,09,14,10,13.40
2015,04,09,14,11,13.50
2015,04,09,14,12,13.50
2015,04,09,14,13,13.60
2015,04,09,14,14,13.60
2015,04,09,14,15,13.60
2015,04,09,14,16,13.50
2015,04,09,14,17,13.50
2015,04,09,14,18,13.50
2015,04,09,14,19,13.50
2015,04,09,14,20,13.60
2015,04,09,14,21,13.60
2015,04,09,14,22,13.60
2015,04,09,14,23,13.60
2015,04,09,14,24,13.60
2015,04,09,14,25,13.50
2015,04,09,14,26,13.50
2015,04,09,14,27,13.40
2015,04,09,14,28,13.40
2015,04,09,14,29,13.40
2015,04,09,14,30,13.30
2015,04,09,14,31,13.30
2015,04,09,14,32,13.40
2015,04,09,14,33,13.50
2015,04,09,14,34,13.50
2015,04,09,14,35,13.60
2015,04,09,14,36,13.60
2015,04,09,14,37,13.60
2015,04,09,14,38,13.60
2015,04,09,14,39,13.70
2015,04,09,14,40,13.70
2015,04,09,14,41,13.70
2015,04,09,14,42,13.80
2015,04,09,14,43,13.80
2015,04,09,14,44,13.80
2015,04,09,14,45,13.70
2015,04,09,14,46,13.70
2015,04,09,14,47,13.60
2015,04,09,14,48,13.60
2015,04,09,14,49,13.60
2015,04,09,14,50,13.60
2015,04,09,14,51,13.60
2015,04,09,14,52,13.60
2015,04,09,14,53,13.60
2015,04,09,14,54,13.60
2015,04,09,14,55,13.60
2015,04,09,14,56,13.50
2015,04,09,14,57,13.60
2015,04,09,14,58,13.60
2015,04,09,14,59,13.70
2015,04,09,15,00,13.70
2015,04,09,15,01,13.70
2015,04,09,15,02,13.70
2015,04,09,15,03,13.70
2015,04,09,15,04,13.70
2015,04,09,15,05,13.70
2015,04,09,15,06,13.80
2015,04,09,15,07,13.70
2015,04,09,15,08,13.70
2015,04,09,15,09,13.70
2015,04,09,15,10,13.80
2015,04,09,15,11,13.80
2015,04,09,15,12,13.80
2015,04,09,15,13,13.80
2015,04,09,15,14,13.70
2015,04,09,15,15,13.70
2015,04,09,15,16,13.70
2015,04,09,15,17,13.70
2015,04,09,15,18,13.70
2015,04,09,15,19,13.70
2015,04,09,15,20,13.80
2015,04,09,15,21,13.80
2015,04,09,15,22,13.80
2015,04,09,15,23,13.80
2015,04,09,15,24,13.80
2015,04,09,15,25,13.90
2015,04,09,15,26,13.90
2015,04,09,15,27,13.90
2015,04,09,15,28,13.90
2015,04,09,15,29,13.90
2015,04,09,15,30,14.00
2015,04,09,15,31,14.00
2015,04,09,15,32,14.00
2015,04,09,15,33,14.10
2015,04,09,15,34,14.10
2015,04,09,15,35,14.10
2015,04,09,15,36,14.20
2015,04,09,15,37,14.20
2015,04,09,15,38,14.20
2015,04,09,15,39,14.20
2015,04,09,15,40,14.20
2015,04,09,15,41,14.20
2015,04,09,15,42,14.30
2015,04,09,15,43,14.30
2015,04,09,15,44,14.30
2015,04,09,15,45,14.30
2015,04,09,15,46,14.30
2015,04,09,15,47,14.30
2015,04,09,15,48,14.30
2015,04,09,15,49,14.30
2015,04,09,15,50,14.40
2015,04,09,15,51,14.40
2015,04,09,15,52,14.50
2015,04,09,15,53,14.60
2015,04,09,15,54,14.70
2015,04,09,15,55,14.70
2015,04,09,15,56,14.60
2015,04,09,15,57,14.60
2015,04,09,15,58,14.60
2015,04,09,15,59,14.60
2015,04,09,16,00,14.70
2015,04,09,16,01,14.60
2015,04,09,16,02,14.60
2015,04,09,16,03,14.50
2015,04,09,16,04,14.50
2015,04,09,16,05,14.50
2015,04,09,16,06,14.40
2015,04,09,16,07,14.40
2015,04,09,16,08,14.40
2015,04,09,16,09,14.40
2015,04,09,16,10,14.40
2015,04,09,16,11,14.40
2015,04,09,16,12,14.50
2015,04,09,16,13,14.60
2015,04,09,16,14,14.60
2015,04,09,16,15,14.60
2015,04,09,16,16,14.60
2015,04,09,16,17,14.60
2015,04,09,16,18,14.50
2015,04,09,16,19,14.40
2015,04,09,16,20,14.40
2015,04,09,16,21,14.30
2015,04,09,16,22,14.20
2015,04,09,16,23,14.20
2015,04,09,16,24,14.20
2015,04,09,16,25,14.20
2015,04,09,16,26,14.20
2015,04,09,16,27,14.30
2015,04,09,16,28,14.40
2015,04,09,16,29,14.50
2015,04,09,16,30,14.70
2015,04,09,16,31,14.80
2015,04,09,16,32,14.90
2015,04,09,16,33,14.90
2015,04,09,16,34,14.90
2015,04,09,16,35,14.90
2015,04,09,16,36,14.80
2015,04,09,16,37,14.90
2015,04,09,16,38,14.90
2015,04,09,16,39,14.90
2015,04,09,16,40,14.90
2015,04,09,16,41,14.80
2015,04,09,16,42,14.80
2015,04,09,16,43,14.80
2015,04,09,16,44,14.70
2015,04,09,16,45,14.70
2015,04,09,16,46,14.80
2015,04,09,16,47,14.80
2015,04,09,16,48,14.70
2015,04,09,16,49,14.70
2015,04,09,16,50,14.70
2015,04,09,16,51,14.70
2015,04,09,16,52,14.70
2015,04,09,16,53,14.70
2015,04,09,16,54,14.70
2015,04,09,16,55,14.70
2015,04,09,16,56,14.70
2015,04,09,16,57,14.70
2015,04,09,16,58,14.60
2015,04,09,16,59,14.70
2015,04,09,17,00,14.70
2015,04,09,17,01,14.70
2015,04,09,17,02,14.80
2015,04,09,17,03,14.80
2015,04,09,17,04,14.80
2015,04,09,17,05,14.80
2015,04,09,17,06,14.80
2015,04,09,17,07,14.80
2015,04,09,17,08,14.90
2015,04,09,17,09,14.90
2015,04,09,17,10,14.90
2015,04,09,17,11,14.90
2015,04,09,17,12,14.90
2015,04,09,17,13,14.90
2015,04,09,17,14,14.90
2015,04,09,17,15,14.90
2015,04,09,17,16,14.90
2015,04,09,17,17,14.90
2015,04,09,17,18,14.90
2015,04,09,17,19,14.90
2015,04,09,17,20,14.90
2015,04,09,17,21,14.90
2015,04,09,17,22,14.90
2015,04,09,17,23,14.90
2015,04,09,17,24,15.00
2015,04,09,17,25,14.90
2015,04,09,17,26,14.90
2015,04,09,17,27,14.90
2015,04,09,17,28,14.90
2015,04,09,17,29,14.90
2015,04,09,17,30,14.80
2015,04,09,17,31,14.80
2015,04,09,17,32,14.80
2015,04,09,17,33,14.70
2015,04,09,17,34,14.70
2015,04,09,17,35,14.70
2015,04,09,17,36,14.70
2015,04,09,17,37,14.70
2015,04,09,17,38,14.70
2015,04,09,17,39,14.70
2015,04,09,17,40,14.70
2015,04,09,17,41,14.70
2015,04,09,17,42,14.70
2015,04,09,17,43,14.70
2015,04,09,17,44,14.70